Time,TemperatureF,DewpointF,PressureIn,WindDirection,WindDirectionDegrees,WindSpeedMPH,WindSpeedGustMPH,Humidity,HourlyPrecipIn,Conditions,Clouds,dailyrainin,SoftwareType,DateUTC
2013-01-07 00:01:00,18.7,16.0,30.04,SSE,153,4.0,19.0,89,0.00,,---,0.00,VWS V13.01,2013-01-07 06:01:00,
2013-01-07 00:06:00,18.6,15.9,30.04,SSE,159,6.0,15.0,89,0.00,,---,0.00,VWS V13.01,2013-01-07 06:06:00,
2013-01-07 00:11:00,18.6,15.9,30.04,SSE,152,6.0,19.0,89,0.00,,---,0.00,VWS V13.01,2013-01-07 06:11:00,
2013-01-07 00:17:00,18.5,15.8,30.00,South,190,9.0,15.0,89,0.00,,---,0.00,VWS V13.01,2013-01-07 06:17:00,
2013-01-07 00:22:00,18.4,15.7,30.00,SSE,155,7.0,17.0,89,0.00,,---,0.00,VWS V13.01,2013-01-07 06:22:00,
2013-01-07 00:27:00,18.3,15.6,30.00,South,173,4.0,17.0,89,0.00,,---,0.00,VWS V13.01,2013-01-07 06:27:00,
2013-01-07 00:32:00,18.4,15.4,30.01,SSE,149,5.0,15.0,88,0.00,,---,0.00,VWS V13.01,2013-01-07 06:32:00,
2013-01-07 00:38:00,18.4,15.4,30.01,SSW,198,5.0,20.0,88,0.00,,---,0.00,VWS V13.01,2013-01-07 06:38:00,
2013-01-07 00:43:00,18.5,15.6,30.01,South,186,9.0,20.0,88,0.00,,---,0.00,VWS V13.01,2013-01-07 06:43:00,
2013-01-07 00:48:00,18.6,15.4,29.97,South,184,5.0,15.0,87,0.00,,---,0.00,VWS V13.01,2013-01-07 06:48:00,
2013-01-07 00:53:00,18.8,15.6,29.97,South,181,5.0,16.0,87,0.00,,---,0.00,VWS V13.01,2013-01-07 06:53:00,
2013-01-07 00:59:00,18.8,15.6,29.97,South,172,8.0,17.0,87,0.00,,---,0.00,VWS V13.01,2013-01-07 06:59:00,
2013-01-07 01:04:00,18.9,15.7,29.96,South,178,8.0,19.0,87,0.00,,---,0.00,VWS V13.01,2013-01-07 07:04:00,
2013-01-07 01:09:00,18.9,15.4,29.96,SW,229,10.0,22.0,86,0.00,,---,0.00,VWS V13.01,2013-01-07 07:09:00,
2013-01-07 01:15:00,18.8,15.3,29.96,South,172,3.0,22.0,86,0.00,,---,0.00,VWS V13.01,2013-01-07 07:15:00,
2013-01-07 01:20:00,18.9,15.4,29.93,SSW,211,10.0,24.0,86,0.00,,---,0.00,VWS V13.01,2013-01-07 07:20:00,
2013-01-07 01:25:00,19.0,15.5,29.93,South,181,4.0,24.0,86,0.00,,---,0.00,VWS V13.01,2013-01-07 07:25:00,
2013-01-07 01:30:00,19.2,15.4,29.93,SW,223,5.0,24.0,85,0.00,,---,0.00,VWS V13.01,2013-01-07 07:30:00,
2013-01-07 01:36:00,19.3,15.5,29.93,SSW,192,5.0,14.0,85,0.00,,---,0.00,VWS V13.01,2013-01-07 07:36:00,
2013-01-07 01:41:00,19.3,15.5,29.93,SSE,156,6.0,18.0,85,0.00,,---,0.00,VWS V13.01,2013-01-07 07:41:00,
2013-01-07 01:46:00,19.3,15.5,29.95,SSE,161,6.0,18.0,85,0.00,,---,0.00,VWS V13.01,2013-01-07 07:46:00,
2013-01-07 01:51:00,19.3,15.5,29.95,South,173,5.0,18.0,85,0.00,,---,0.00,VWS V13.01,2013-01-07 07:51:00,
2013-01-07 01:57:00,19.2,15.4,29.95,SW,218,7.0,23.0,85,0.00,,---,0.00,VWS V13.01,2013-01-07 07:57:00,
2013-01-07 02:02:00,19.1,15.3,29.94,SSW,198,9.0,20.0,85,0.00,,---,0.00,VWS V13.01,2013-01-07 08:02:00,
2013-01-07 02:07:00,19.1,15.3,29.94,SSE,157,4.0,20.0,85,0.00,,---,0.00,VWS V13.01,2013-01-07 08:07:00,
2013-01-07 02:12:00,18.9,15.4,29.94,SSE,165,10.0,20.0,86,0.00,,---,0.00,VWS V13.01,2013-01-07 08:12:00,
2013-01-07 02:18:00,18.9,15.1,29.93,SSE,163,8.0,15.0,85,0.00,,---,0.00,VWS V13.01,2013-01-07 08:18:00,
2013-01-07 02:23:00,18.9,15.1,29.93,SSW,195,11.0,15.0,85,0.00,,---,0.00,VWS V13.01,2013-01-07 08:23:00,
2013-01-07 02:28:00,18.9,15.1,29.93,SE,146,3.0,19.0,85,0.00,,---,0.00,VWS V13.01,2013-01-07 08:28:00,
2013-01-07 02:34:00,18.9,15.1,29.91,South,182,10.0,15.0,85,0.00,,---,0.00,VWS V13.01,2013-01-07 08:34:00,
2013-01-07 02:39:00,18.8,15.1,29.91,South,189,4.0,15.0,85,0.00,,---,0.00,VWS V13.01,2013-01-07 08:39:00,
2013-01-07 02:44:00,18.9,15.1,29.91,SSW,201,3.0,17.0,85,0.00,,---,0.00,VWS V13.01,2013-01-07 08:44:00,
2013-01-07 02:49:00,18.9,15.1,29.89,SSE,155,13.0,17.0,85,0.00,,---,0.00,VWS V13.01,2013-01-07 08:49:00,
2013-01-07 02:54:00,19.0,15.2,29.89,South,174,4.0,17.0,85,0.00,,---,0.00,VWS V13.01,2013-01-07 08:54:00,
2013-01-07 02:59:00,19.0,15.2,29.89,ESE,121,8.0,18.0,85,0.00,,---,0.00,VWS V13.01,2013-01-07 08:59:00,
2013-01-07 03:04:00,19.0,15.2,29.87,SW,227,6.0,15.0,85,0.00,,---,0.00,VWS V13.01,2013-01-07 09:04:00,
2013-01-07 03:10:00,18.9,15.4,29.87,South,190,6.0,15.0,86,0.00,,---,0.00,VWS V13.01,2013-01-07 09:10:00,
2013-01-07 03:15:00,19.0,15.5,29.87,SSW,207,6.0,16.0,86,0.00,,---,0.00,VWS V13.01,2013-01-07 09:15:00,
2013-01-07 03:20:00,18.9,15.4,29.84,SSE,167,12.0,16.0,86,0.00,,---,0.00,VWS V13.01,2013-01-07 09:20:00,
2013-01-07 03:25:00,19.0,15.5,29.84,SSW,206,4.0,16.0,86,0.00,,---,0.00,VWS V13.01,2013-01-07 09:25:00,
2013-01-07 03:31:00,19.0,15.5,29.82,SW,236,4.0,16.0,86,0.00,,---,0.00,VWS V13.01,2013-01-07 09:31:00,
2013-01-07 03:36:00,19.2,15.7,29.82,South,190,17.0,17.0,86,0.00,,---,0.00,VWS V13.01,2013-01-07 09:36:00,
2013-01-07 03:41:00,19.2,15.7,29.82,SSE,167,4.0,17.0,86,0.00,,---,0.00,VWS V13.01,2013-01-07 09:41:00,
2013-01-07 03:46:00,19.7,16.5,29.80,South,169,10.0,16.0,87,0.00,,---,0.00,VWS V13.01,2013-01-07 09:46:00,
2013-01-07 03:52:00,19.7,16.2,29.80,South,169,8.0,18.0,86,0.00,,---,0.00,VWS V13.01,2013-01-07 09:52:00,
2013-01-07 03:57:00,19.3,17.9,29.80,SSE,167,5.0,20.0,94,0.00,,---,0.00,VWS V13.01,2013-01-07 09:57:00,
2013-01-07 04:02:00,18.8,15.6,29.78,SE,128,14.0,16.0,87,0.00,,---,0.00,VWS V13.01,2013-01-07 10:02:00,
2013-01-07 04:07:00,18.8,15.6,29.78,SSW,200,5.0,18.0,87,0.00,,---,0.00,VWS V13.01,2013-01-07 10:07:00,
2013-01-07 04:13:00,18.8,15.8,29.78,SSE,168,6.0,19.0,88,0.00,,---,0.00,VWS V13.01,2013-01-07 10:13:00,
2013-01-07 04:18:00,18.7,15.7,29.82,South,188,7.0,16.0,88,0.00,,---,0.00,VWS V13.01,2013-01-07 10:18:00,
2013-01-07 04:23:00,19.3,16.3,29.82,SSW,209,11.0,31.0,88,0.00,,---,0.00,VWS V13.01,2013-01-07 10:23:00,
2013-01-07 04:29:00,19.5,16.3,29.82,SW,216,5.0,31.0,87,0.00,,---,0.00,VWS V13.01,2013-01-07 10:29:00,
2013-01-07 04:34:00,19.5,16.3,29.81,SW,214,20.0,25.0,87,0.00,,---,0.00,VWS V13.01,2013-01-07 10:34:00,
2013-01-07 04:39:00,19.7,16.5,29.81,SSW,211,4.0,25.0,87,0.00,,---,0.00,VWS V13.01,2013-01-07 10:39:00,
2013-01-07 04:44:00,19.7,16.5,29.81,South,175,7.0,25.0,87,0.00,,---,0.00,VWS V13.01,2013-01-07 10:44:00,
2013-01-07 04:50:00,19.7,16.5,29.78,South,175,11.0,16.0,87,0.00,,---,0.00,VWS V13.01,2013-01-07 10:50:00,
2013-01-07 04:55:00,19.7,16.5,29.78,SSW,205,4.0,21.0,87,0.00,,---,0.00,VWS V13.01,2013-01-07 10:55:00,
2013-01-07 05:00:00,19.7,16.5,29.78,WSW,237,6.0,21.0,87,0.00,,---,0.00,VWS V13.01,2013-01-07 11:00:00,
2013-01-07 05:05:00,19.7,16.5,29.78,WSW,237,14.0,20.0,87,0.00,,---,0.00,VWS V13.01,2013-01-07 11:05:00,
2013-01-07 05:11:00,19.8,16.3,29.78,SW,229,15.0,20.0,86,0.00,,---,0.00,VWS V13.01,2013-01-07 11:11:00,
2013-01-07 05:16:00,19.8,16.6,29.78,West,271,13.0,21.0,87,0.00,,---,0.00,VWS V13.01,2013-01-07 11:16:00,
2013-01-07 05:21:00,19.7,16.2,29.78,SW,214,9.0,22.0,86,0.00,,---,0.00,VWS V13.01,2013-01-07 11:21:00,
2013-01-07 05:26:00,19.7,16.2,29.78,SSE,158,9.0,22.0,86,0.00,,---,0.00,VWS V13.01,2013-01-07 11:26:00,
2013-01-07 05:31:00,19.7,16.2,29.78,South,180,5.0,5.0,86,0.00,,---,0.00,VWS V13.01,2013-01-07 11:31:00,
2013-01-07 05:36:00,19.5,16.0,29.78,SW,229,16.0,17.0,86,0.00,,---,0.00,VWS V13.01,2013-01-07 11:36:00,
2013-01-07 05:41:00,19.4,15.9,29.78,SW,216,6.0,18.0,86,0.00,,---,0.00,VWS V13.01,2013-01-07 11:41:00,
2013-01-07 05:47:00,19.2,15.7,29.80,SW,216,15.0,15.0,86,0.00,,---,0.00,VWS V13.01,2013-01-07 11:47:00,
2013-01-07 05:52:00,19.0,15.5,29.80,SSW,213,5.0,24.0,86,0.00,,---,0.00,VWS V13.01,2013-01-07 11:52:00,
2013-01-07 05:57:00,18.8,15.6,29.80,SW,217,16.0,24.0,87,0.00,,---,0.00,VWS V13.01,2013-01-07 11:57:00,
2013-01-07 06:02:00,18.8,15.6,29.79,SSW,212,10.0,17.0,87,0.00,,---,0.00,VWS V13.01,2013-01-07 12:02:00,
2013-01-07 06:08:00,18.6,15.4,29.79,SW,236,4.0,18.0,87,0.00,,---,0.00,VWS V13.01,2013-01-07 12:08:00,
2013-01-07 06:13:00,18.5,15.3,29.79,SW,232,6.0,18.0,87,0.00,,---,0.00,VWS V13.01,2013-01-07 12:13:00,
2013-01-07 06:18:00,18.3,15.1,29.76,SSW,196,1.0,7.0,87,0.00,,---,0.00,VWS V13.01,2013-01-07 12:18:00,
2013-01-07 06:23:00,18.3,15.1,29.76,South,179,3.0,18.0,87,0.00,,---,0.00,VWS V13.01,2013-01-07 12:23:00,
2013-01-07 06:29:00,18.2,15.0,29.76,SSE,167,3.0,18.0,87,0.00,,---,0.00,VWS V13.01,2013-01-07 12:29:00,
2013-01-07 06:34:00,18.1,14.9,29.77,SW,215,5.0,9.0,87,0.00,,---,0.00,VWS V13.01,2013-01-07 12:34:00,
2013-01-07 06:39:00,18.0,14.8,29.77,SW,214,2.0,10.0,87,0.00,,---,0.00,VWS V13.01,2013-01-07 12:39:00,
2013-01-07 06:44:00,18.0,14.8,29.77,SSW,194,2.0,14.0,87,0.00,,---,0.00,VWS V13.01,2013-01-07 12:44:00,
2013-01-07 06:50:00,18.1,14.9,29.76,SSE,160,9.0,11.0,87,0.00,,---,0.00,VWS V13.01,2013-01-07 12:50:00,
2013-01-07 06:55:00,18.1,14.9,29.76,SW,217,2.0,13.0,87,0.00,,---,0.00,VWS V13.01,2013-01-07 12:55:00,
2013-01-07 07:00:00,18.1,14.9,29.76,SSW,202,3.0,13.0,87,0.00,,---,0.00,VWS V13.01,2013-01-07 13:00:00,
2013-01-07 07:05:00,18.0,14.8,29.75,SSW,199,3.0,12.0,87,0.00,,---,0.00,VWS V13.01,2013-01-07 13:05:00,
2013-01-07 07:11:00,17.8,14.6,29.75,SW,229,2.0,14.0,87,0.00,,---,0.00,VWS V13.01,2013-01-07 13:11:00,
2013-01-07 07:16:00,17.9,14.7,29.72,SSW,205,2.0,18.0,87,0.00,,---,0.00,VWS V13.01,2013-01-07 13:16:00,
2013-01-07 07:21:00,17.8,14.6,29.72,SSW,211,5.0,11.0,87,0.00,,---,0.00,VWS V13.01,2013-01-07 13:21:00,
2013-01-07 07:26:00,17.7,14.8,29.72,SW,215,4.0,17.0,88,0.00,,---,0.00,VWS V13.01,2013-01-07 13:26:00,
2013-01-07 07:32:00,17.7,14.8,29.70,SSE,166,7.0,11.0,88,0.00,,---,0.00,VWS V13.01,2013-01-07 13:32:00,
2013-01-07 07:37:00,17.7,14.8,29.70,SSW,192,3.0,24.0,88,0.00,,---,0.00,VWS V13.01,2013-01-07 13:37:00,
2013-01-07 07:42:00,17.7,14.8,29.70,SW,217,3.0,24.0,88,0.00,,---,0.00,VWS V13.01,2013-01-07 13:42:00,
2013-01-07 07:47:00,17.7,14.8,29.72,SW,227,10.0,10.0,88,0.00,,---,0.00,VWS V13.01,2013-01-07 13:47:00,
2013-01-07 07:53:00,17.7,14.8,29.72,SSW,196,6.0,15.0,88,0.00,,---,0.00,VWS V13.01,2013-01-07 13:53:00,
2013-01-07 07:58:00,17.7,14.8,29.72,South,185,3.0,18.0,88,0.00,,---,0.00,VWS V13.01,2013-01-07 13:58:00,
2013-01-07 08:03:00,17.7,14.8,29.70,SW,227,3.0,11.0,88,0.00,,---,0.00,VWS V13.01,2013-01-07 14:03:00,
2013-01-07 08:08:00,17.8,14.9,29.70,SW,215,6.0,14.0,88,0.00,,---,0.00,VWS V13.01,2013-01-07 14:08:00,
2013-01-07 08:14:00,17.9,14.9,29.70,SW,232,9.0,15.0,88,0.00,,---,0.00,VWS V13.01,2013-01-07 14:14:00,
2013-01-07 08:19:00,18.0,15.1,29.70,WSW,242,6.0,13.0,88,0.00,,---,0.00,VWS V13.01,2013-01-07 14:19:00,
2013-01-07 08:24:00,17.9,14.9,29.70,SSW,211,3.0,17.0,88,0.00,,---,0.00,VWS V13.01,2013-01-07 14:24:00,
2013-01-07 08:29:00,17.9,14.9,29.70,SW,215,4.0,17.0,88,0.00,,---,0.00,VWS V13.01,2013-01-07 14:29:00,
2013-01-07 08:34:00,18.0,15.1,29.70,SW,221,5.0,12.0,88,0.00,,---,0.00,VWS V13.01,2013-01-07 14:34:00,
2013-01-07 08:40:00,18.1,15.1,29.70,SW,227,4.0,16.0,88,0.00,,---,0.00,VWS V13.01,2013-01-07 14:40:00,
2013-01-07 08:45:00,18.1,15.1,29.70,SW,229,9.0,16.0,88,0.00,,---,0.00,VWS V13.01,2013-01-07 14:45:00,
2013-01-07 08:50:00,18.2,15.2,29.72,SW,225,4.0,16.0,88,0.00,,---,0.00,VWS V13.01,2013-01-07 14:50:00,
2013-01-07 08:55:00,18.3,15.4,29.72,SW,222,6.0,16.0,88,0.00,,---,0.00,VWS V13.01,2013-01-07 14:55:00,
2013-01-07 09:01:00,18.4,15.4,29.70,SSW,213,3.0,16.0,88,0.00,,---,0.00,VWS V13.01,2013-01-07 15:01:00,
2013-01-07 09:06:00,18.7,15.5,29.70,SW,233,4.0,14.0,87,0.00,,---,0.00,VWS V13.01,2013-01-07 15:06:00,
2013-01-07 09:11:00,19.2,16.0,29.70,SSW,209,9.0,14.0,87,0.00,,---,0.00,VWS V13.01,2013-01-07 15:11:00,
2013-01-07 09:16:00,19.7,16.2,29.69,SW,236,5.0,9.0,86,0.00,,---,0.00,VWS V13.01,2013-01-07 15:16:00,
2013-01-07 09:22:00,20.1,16.6,29.69,South,183,5.0,14.0,86,0.00,,---,0.00,VWS V13.01,2013-01-07 15:22:00,
2013-01-07 09:27:00,20.6,17.1,29.69,SSW,205,9.0,14.0,86,0.00,,---,0.00,VWS V13.01,2013-01-07 15:27:00,
2013-01-07 09:32:00,21.2,17.4,29.68,SW,216,6.0,11.0,85,0.00,,---,0.00,VWS V13.01,2013-01-07 15:32:00,
2013-01-07 09:38:00,22.0,18.2,29.68,SW,219,3.0,11.0,85,0.00,,---,0.00,VWS V13.01,2013-01-07 15:38:00,
2013-01-07 09:43:00,22.7,18.3,29.68,SW,229,5.0,15.0,83,0.00,,---,0.00,VWS V13.01,2013-01-07 15:43:00,
2013-01-07 09:48:00,23.3,18.9,29.67,SW,234,6.0,14.0,83,0.00,,---,0.00,VWS V13.01,2013-01-07 15:48:00,
2013-01-07 09:53:00,23.9,19.2,29.67,West,259,7.0,14.0,82,0.00,,---,0.00,VWS V13.01,2013-01-07 15:53:00,
2013-01-07 09:59:00,24.3,19.3,29.67,SW,221,2.0,16.0,81,0.00,,---,0.00,VWS V13.01,2013-01-07 15:59:00,
2013-01-07 10:04:00,24.5,19.5,29.66,South,174,5.0,12.0,81,0.00,,---,0.00,VWS V13.01,2013-01-07 16:04:00,
2013-01-07 10:09:00,24.6,19.9,29.66,South,184,3.0,14.0,82,0.00,,---,0.00,VWS V13.01,2013-01-07 16:09:00,
2013-01-07 10:14:00,24.7,20.0,29.66,SW,224,2.0,15.0,82,0.00,,---,0.00,VWS V13.01,2013-01-07 16:14:00,
2013-01-07 10:20:00,24.6,19.9,29.66,SSW,210,4.0,17.0,82,0.00,,---,0.00,VWS V13.01,2013-01-07 16:20:00,
2013-01-07 10:25:00,24.4,20.0,29.66,SW,225,10.0,17.0,83,0.00,,---,0.00,VWS V13.01,2013-01-07 16:25:00,
2013-01-07 10:30:00,24.4,20.3,29.66,SW,224,10.0,17.0,84,0.00,,---,0.00,VWS V13.01,2013-01-07 16:30:00,
2013-01-07 10:35:00,24.4,20.3,29.66,WSW,240,3.0,15.0,84,0.00,,---,0.00,VWS V13.01,2013-01-07 16:35:00,
2013-01-07 10:41:00,24.5,20.4,29.66,WSW,237,4.0,15.0,84,0.00,,---,0.00,VWS V13.01,2013-01-07 16:41:00,
2013-01-07 10:46:00,24.6,20.5,29.65,SW,218,2.0,15.0,84,0.00,,---,0.00,VWS V13.01,2013-01-07 16:46:00,
2013-01-07 10:51:00,24.8,20.7,29.65,SW,234,6.0,17.0,84,0.00,,---,0.00,VWS V13.01,2013-01-07 16:51:00,
2013-01-07 10:56:00,24.9,20.8,29.65,West,271,5.0,17.0,84,0.00,,---,0.00,VWS V13.01,2013-01-07 16:56:00,
2013-01-07 11:02:00,25.0,20.9,29.66,SW,223,5.0,8.0,84,0.00,,---,0.00,VWS V13.01,2013-01-07 17:02:00,
2013-01-07 11:07:00,25.1,21.0,29.66,SSW,205,2.0,9.0,84,0.00,,---,0.00,VWS V13.01,2013-01-07 17:07:00,
2013-01-07 11:12:00,25.2,21.0,29.66,WSW,238,14.0,19.0,84,0.00,,---,0.00,VWS V13.01,2013-01-07 17:12:00,
2013-01-07 11:17:00,25.4,21.2,29.62,SW,229,2.0,9.0,84,0.00,,---,0.00,VWS V13.01,2013-01-07 17:17:00,
2013-01-07 11:23:00,25.8,21.4,29.62,SSW,204,6.0,18.0,83,0.00,,---,0.00,VWS V13.01,2013-01-07 17:23:00,
2013-01-07 11:28:00,26.1,21.6,29.62,SW,230,15.0,18.0,83,0.00,,---,0.00,VWS V13.01,2013-01-07 17:28:00,
2013-01-07 11:33:00,26.1,21.9,29.60,SSW,212,9.0,16.0,84,0.00,,---,0.00,VWS V13.01,2013-01-07 17:33:00,
2013-01-07 11:38:00,26.4,22.0,29.60,SW,236,7.0,18.0,83,0.00,,---,0.00,VWS V13.01,2013-01-07 17:38:00,
2013-01-07 11:44:00,27.0,22.5,29.60,WSW,248,3.0,18.0,83,0.00,,---,0.00,VWS V13.01,2013-01-07 17:44:00,
2013-01-07 11:49:00,27.6,22.8,29.60,SW,215,6.0,11.0,82,0.00,,---,0.00,VWS V13.01,2013-01-07 17:49:00,
2013-01-07 11:54:00,28.3,23.2,29.60,WNW,294,4.0,14.0,81,0.00,,---,0.00,VWS V13.01,2013-01-07 17:54:00,
2013-01-07 11:59:00,28.9,23.5,29.60,SW,230,14.0,14.0,80,0.00,,---,0.00,VWS V13.01,2013-01-07 17:59:00,
2013-01-07 12:05:00,29.3,23.6,29.56,SW,226,10.0,15.0,79,0.00,,---,0.00,VWS V13.01,2013-01-07 18:05:00,
2013-01-07 12:10:00,29.6,23.9,29.56,WSW,253,6.0,15.0,79,0.00,,---,0.00,VWS V13.01,2013-01-07 18:10:00,
2013-01-07 12:15:00,29.9,23.9,29.55,South,170,6.0,16.0,78,0.00,,---,0.00,VWS V13.01,2013-01-07 18:15:00,
2013-01-07 12:20:00,30.4,24.4,29.55,SSW,192,6.0,11.0,78,0.00,,---,0.00,VWS V13.01,2013-01-07 18:20:00,
2013-01-07 12:26:00,30.6,24.3,29.55,SSW,209,2.0,16.0,77,0.00,,---,0.00,VWS V13.01,2013-01-07 18:26:00,
2013-01-07 12:31:00,30.8,24.1,29.53,WSW,257,4.0,17.0,76,0.00,,---,0.00,VWS V13.01,2013-01-07 18:31:00,
2013-01-07 12:36:00,30.7,24.4,29.53,West,266,7.0,17.0,77,0.00,,---,0.00,VWS V13.01,2013-01-07 18:36:00,
2013-01-07 12:41:00,30.8,24.5,29.53,West,262,13.0,17.0,77,0.00,,---,0.00,VWS V13.01,2013-01-07 18:41:00,
2013-01-07 12:47:00,31.0,24.3,29.53,South,170,17.0,17.0,76,0.00,,---,0.00,VWS V13.01,2013-01-07 18:47:00,
2013-01-07 12:52:00,31.1,24.4,29.53,West,261,6.0,22.0,76,0.00,,---,0.00,VWS V13.01,2013-01-07 18:52:00,
2013-01-07 12:57:00,31.2,24.5,29.53,SW,225,7.0,22.0,76,0.00,,---,0.00,VWS V13.01,2013-01-07 18:57:00,
2013-01-07 13:02:00,31.2,24.5,29.55,WSW,238,12.0,19.0,76,0.00,,---,0.00,VWS V13.01,2013-01-07 19:02:00,
2013-01-07 13:08:00,30.7,24.0,29.55,SW,236,4.0,20.0,76,0.00,,---,0.00,VWS V13.01,2013-01-07 19:08:00,
2013-01-07 13:13:00,30.7,24.0,29.55,SW,227,4.0,20.0,76,0.00,,---,0.00,VWS V13.01,2013-01-07 19:13:00,
2013-01-07 13:18:00,31.2,24.2,29.55,West,260,5.0,12.0,75,0.00,,---,0.00,VWS V13.01,2013-01-07 19:18:00,
2013-01-07 13:24:00,31.8,24.8,29.55,West,277,17.0,19.0,75,0.00,,---,0.00,VWS V13.01,2013-01-07 19:24:00,
2013-01-07 13:29:00,31.4,24.1,29.55,WNW,285,13.0,19.0,74,0.00,,---,0.00,VWS V13.01,2013-01-07 19:29:00,
2013-01-07 13:34:00,31.3,24.3,29.55,West,268,5.0,13.0,75,0.00,,---,0.00,VWS V13.01,2013-01-07 19:34:00,
2013-01-07 13:39:00,31.4,24.1,29.55,West,272,7.0,18.0,74,0.00,,---,0.00,VWS V13.01,2013-01-07 19:39:00,
2013-01-07 13:45:00,31.7,24.4,29.55,SW,228,5.0,18.0,74,0.00,,---,0.00,VWS V13.01,2013-01-07 19:45:00,
2013-01-07 13:50:00,32.0,24.7,29.56,WSW,258,10.0,14.0,74,0.00,,---,0.00,VWS V13.01,2013-01-07 19:50:00,
2013-01-07 13:55:00,31.8,24.5,29.56,West,261,7.0,16.0,74,0.00,,---,0.00,VWS V13.01,2013-01-07 19:55:00,
2013-01-07 14:00:00,31.5,24.5,29.56,WSW,244,4.0,22.0,75,0.00,,---,0.00,VWS V13.01,2013-01-07 20:00:00,
2013-01-07 14:06:00,31.3,24.3,29.56,WSW,254,8.0,16.0,75,0.00,,---,0.00,VWS V13.01,2013-01-07 20:06:00,
2013-01-07 14:11:00,31.3,24.6,29.56,West,260,3.0,16.0,76,0.00,,---,0.00,VWS V13.01,2013-01-07 20:11:00,
2013-01-07 14:16:00,31.9,24.9,29.57,WSW,254,6.0,16.0,75,0.00,,---,0.00,VWS V13.01,2013-01-07 20:16:00,
2013-01-07 14:21:00,31.7,25.0,29.57,WSW,257,2.0,20.0,76,0.00,,---,0.00,VWS V13.01,2013-01-07 20:21:00,
2013-01-07 14:22:00,31.7,25.0,29.57,SW,221,5.0,20.0,76,0.00,,---,0.00,VWS V13.01,2013-01-07 20:22:00,
2013-01-07 14:27:00,31.4,24.4,29.57,West,267,11.0,21.0,75,0.00,,---,0.00,VWS V13.01,2013-01-07 20:27:00,
2013-01-07 14:32:00,31.1,24.4,29.57,West,274,10.0,11.0,76,0.00,,---,0.00,VWS V13.01,2013-01-07 20:32:00,
2013-01-07 14:37:00,30.9,24.5,29.57,WSW,253,4.0,14.0,77,0.00,,---,0.00,VWS V13.01,2013-01-07 20:37:00,
2013-01-07 14:42:00,30.8,24.5,29.57,SW,217,12.0,22.0,77,0.00,,---,0.00,VWS V13.01,2013-01-07 20:42:00,
2013-01-07 14:48:00,30.9,24.5,29.57,West,276,4.0,14.0,77,0.00,,---,0.00,VWS V13.01,2013-01-07 20:48:00,
2013-01-07 14:53:00,30.9,24.5,29.57,SW,232,3.0,18.0,77,0.00,,---,0.00,VWS V13.01,2013-01-07 20:53:00,
2013-01-07 14:58:00,30.9,24.5,29.57,SW,233,5.0,18.0,77,0.00,,---,0.00,VWS V13.01,2013-01-07 20:58:00,
2013-01-07 15:03:00,31.0,24.6,29.57,WSW,254,13.0,18.0,77,0.00,,---,0.00,VWS V13.01,2013-01-07 21:03:00,
2013-01-07 15:09:00,31.0,24.6,29.57,NNW,327,5.0,19.0,77,0.00,,---,0.00,VWS V13.01,2013-01-07 21:09:00,
2013-01-07 15:14:00,30.9,24.5,29.57,West,278,14.0,22.0,77,0.00,,---,0.00,VWS V13.01,2013-01-07 21:14:00,
2013-01-07 15:19:00,30.9,24.9,29.58,West,266,10.0,14.0,78,0.00,,---,0.00,VWS V13.01,2013-01-07 21:19:00,
2013-01-07 15:24:00,30.9,24.9,29.58,WSW,238,11.0,18.0,78,0.00,,---,0.00,VWS V13.01,2013-01-07 21:24:00,
2013-01-07 15:30:00,31.0,25.0,29.58,WSW,257,2.0,20.0,78,0.00,,---,0.00,VWS V13.01,2013-01-07 21:30:00,
2013-01-07 15:35:00,30.9,24.9,29.59,WNW,288,18.0,18.0,78,0.00,,---,0.00,VWS V13.01,2013-01-07 21:35:00,
2013-01-07 15:40:00,31.0,25.0,29.59,West,262,7.0,18.0,78,0.00,,---,0.00,VWS V13.01,2013-01-07 21:40:00,
2013-01-07 15:45:00,31.0,25.0,29.59,WSW,256,9.0,19.0,78,0.00,,---,0.00,VWS V13.01,2013-01-07 21:45:00,
2013-01-07 15:51:00,31.0,25.0,29.59,WSW,258,9.0,17.0,78,0.00,,---,0.00,VWS V13.01,2013-01-07 21:51:00,
2013-01-07 15:56:00,31.0,25.0,29.59,WSW,256,3.0,17.0,78,0.00,,---,0.00,VWS V13.01,2013-01-07 21:56:00,
2013-01-07 16:01:00,30.9,25.2,29.61,West,279,9.0,17.0,79,0.00,,---,0.00,VWS V13.01,2013-01-07 22:01:00,
2013-01-07 16:06:00,30.9,25.2,29.61,WNW,293,10.0,13.0,79,0.00,,---,0.00,VWS V13.01,2013-01-07 22:06:00,
2013-01-07 16:12:00,30.8,25.1,29.61,WNW,297,4.0,13.0,79,0.00,,---,0.00,VWS V13.01,2013-01-07 22:12:00,
2013-01-07 16:17:00,30.6,25.2,29.61,West,269,8.0,16.0,80,0.00,,---,0.00,VWS V13.01,2013-01-07 22:17:00,
2013-01-07 16:22:00,30.5,25.1,29.61,WNW,293,6.0,17.0,80,0.00,,---,0.00,VWS V13.01,2013-01-07 22:22:00,
2013-01-07 16:27:00,30.5,25.1,29.61,WSW,257,5.0,26.0,80,0.00,,---,0.00,VWS V13.01,2013-01-07 22:27:00,
2013-01-07 16:33:00,30.5,25.1,29.63,West,269,10.0,11.0,80,0.00,,---,0.00,VWS V13.01,2013-01-07 22:33:00,
2013-01-07 16:38:00,30.4,24.7,29.63,SW,225,5.0,29.0,79,0.00,,---,0.00,VWS V13.01,2013-01-07 22:38:00,
2013-01-07 16:43:00,30.3,24.6,29.63,WSW,240,11.0,29.0,79,0.00,,---,0.00,VWS V13.01,2013-01-07 22:43:00,
2013-01-07 16:48:00,30.2,24.5,29.63,SW,219,6.0,21.0,79,0.00,,---,0.00,VWS V13.01,2013-01-07 22:48:00,
2013-01-07 16:53:00,30.2,24.2,29.63,West,274,10.0,24.0,78,0.00,,---,0.00,VWS V13.01,2013-01-07 22:53:00,
2013-01-07 16:59:00,30.0,24.0,29.63,West,266,12.0,24.0,78,0.00,,---,0.00,VWS V13.01,2013-01-07 22:59:00,
2013-01-07 17:04:00,29.9,24.2,29.65,West,273,13.0,13.0,79,0.00,,---,0.00,VWS V13.01,2013-01-07 23:04:00,
2013-01-07 17:09:00,29.8,24.1,29.65,WSW,250,7.0,21.0,79,0.00,,---,0.00,VWS V13.01,2013-01-07 23:09:00,
2013-01-07 17:14:00,29.7,24.0,29.65,SSW,209,6.0,24.0,79,0.00,,---,0.00,VWS V13.01,2013-01-07 23:14:00,
2013-01-07 17:20:00,29.6,23.9,29.67,West,277,10.0,21.0,79,0.00,,---,0.00,VWS V13.01,2013-01-07 23:20:00,
2013-01-07 17:25:00,29.4,23.7,29.67,SW,220,2.0,22.0,79,0.00,,---,0.00,VWS V13.01,2013-01-07 23:25:00,
2013-01-07 17:31:00,29.3,23.6,29.67,WNW,288,6.0,26.0,79,0.00,,---,0.00,VWS V13.01,2013-01-07 23:31:00,
2013-01-07 17:36:00,29.3,23.6,29.67,West,265,7.0,21.0,79,0.00,,---,0.00,VWS V13.01,2013-01-07 23:36:00,
2013-01-07 17:41:00,29.2,23.5,29.67,WNW,284,7.0,21.0,79,0.00,,---,0.00,VWS V13.01,2013-01-07 23:41:00,
2013-01-07 17:47:00,29.2,23.5,29.68,SSW,209,6.0,11.0,79,0.00,,---,0.00,VWS V13.01,2013-01-07 23:47:00,
2013-01-07 17:52:00,29.1,23.4,29.68,WNW,285,7.0,20.0,79,0.00,,---,0.00,VWS V13.01,2013-01-07 23:52:00,
2013-01-07 17:57:00,29.1,23.4,29.68,WSW,243,3.0,22.0,79,0.00,,---,0.00,VWS V13.01,2013-01-07 23:57:00,
2013-01-07 18:02:00,29.1,23.4,29.69,WNW,287,11.0,12.0,79,0.00,,---,0.00,VWS V13.01,2013-01-08 00:02:00,
2013-01-07 18:08:00,29.0,23.3,29.69,NW,317,14.0,18.0,79,0.00,,---,0.00,VWS V13.01,2013-01-08 00:08:00,
2013-01-07 18:13:00,29.0,23.3,29.69,NW,304,13.0,21.0,79,0.00,,---,0.00,VWS V13.01,2013-01-08 00:13:00,
2013-01-07 18:18:00,29.0,23.3,29.71,WSW,239,5.0,17.0,79,0.00,,---,0.00,VWS V13.01,2013-01-08 00:18:00,
2013-01-07 18:23:00,29.0,23.3,29.71,South,184,9.0,23.0,79,0.00,,---,0.00,VWS V13.01,2013-01-08 00:23:00,
2013-01-07 18:29:00,29.0,23.3,29.71,SSW,213,7.0,23.0,79,0.00,,---,0.00,VWS V13.01,2013-01-08 00:29:00,
2013-01-07 18:34:00,28.9,23.2,29.72,West,262,4.0,22.0,79,0.00,,---,0.00,VWS V13.01,2013-01-08 00:34:00,
2013-01-07 18:39:00,28.9,23.2,29.72,SW,236,5.0,22.0,79,0.00,,---,0.00,VWS V13.01,2013-01-08 00:39:00,
2013-01-07 18:45:00,29.0,23.3,29.72,West,260,16.0,22.0,79,0.00,,---,0.00,VWS V13.01,2013-01-08 00:45:00,
2013-01-07 18:50:00,28.9,23.2,29.73,SSW,202,6.0,20.0,79,0.00,,---,0.00,VWS V13.01,2013-01-08 00:50:00,
2013-01-07 18:55:00,29.0,23.3,29.73,SW,219,12.0,20.0,79,0.00,,---,0.00,VWS V13.01,2013-01-08 00:55:00,
2013-01-07 19:00:00,29.0,23.3,29.74,West,268,13.0,24.0,79,0.00,,---,0.00,VWS V13.01,2013-01-08 01:00:00,
2013-01-07 19:06:00,28.9,23.2,29.74,West,267,4.0,18.0,79,0.00,,---,0.00,VWS V13.01,2013-01-08 01:06:00,
2013-01-07 19:11:00,28.9,23.5,29.74,West,263,12.0,21.0,80,0.00,,---,0.00,VWS V13.01,2013-01-08 01:11:00,
2013-01-07 19:16:00,28.9,23.2,29.75,WNW,284,9.0,21.0,79,0.00,,---,0.00,VWS V13.01,2013-01-08 01:16:00,
2013-01-07 19:21:00,28.8,23.1,29.75,SSW,209,6.0,15.0,79,0.00,,---,0.00,VWS V13.01,2013-01-08 01:21:00,
2013-01-07 19:26:00,28.8,23.1,29.75,West,265,7.0,23.0,79,0.00,,---,0.00,VWS V13.01,2013-01-08 01:26:00,
2013-01-07 19:32:00,28.8,23.4,29.76,West,271,6.0,12.0,80,0.00,,---,0.00,VWS V13.01,2013-01-08 01:32:00,
2013-01-07 19:37:00,28.8,23.4,29.76,West,262,15.0,15.0,80,0.00,,---,0.00,VWS V13.01,2013-01-08 01:37:00,
2013-01-07 19:42:00,28.9,23.2,29.76,WSW,252,7.0,22.0,79,0.00,,---,0.00,VWS V13.01,2013-01-08 01:42:00,
2013-01-07 19:47:00,28.8,23.1,29.76,West,262,4.0,14.0,79,0.00,,---,0.00,VWS V13.01,2013-01-08 01:47:00,
2013-01-07 19:53:00,28.8,23.1,29.76,WSW,256,7.0,24.0,79,0.00,,---,0.00,VWS V13.01,2013-01-08 01:53:00,
2013-01-07 19:58:00,28.8,23.4,29.76,NW,312,4.0,24.0,80,0.00,,---,0.00,VWS V13.01,2013-01-08 01:58:00,
2013-01-07 20:03:00,28.8,23.4,29.76,SW,231,5.0,9.0,80,0.00,,---,0.00,VWS V13.01,2013-01-08 02:03:00,
2013-01-07 20:08:00,28.7,23.3,29.76,WSW,257,6.0,21.0,80,0.00,,---,0.00,VWS V13.01,2013-01-08 02:08:00,
2013-01-07 20:14:00,28.7,23.3,29.76,West,272,3.0,26.0,80,0.00,,---,0.00,VWS V13.01,2013-01-08 02:14:00,
2013-01-07 20:19:00,28.7,23.0,29.76,West,277,14.0,21.0,79,0.00,,---,0.00,VWS V13.01,2013-01-08 02:19:00,
2013-01-07 20:24:00,28.7,23.3,29.76,West,270,10.0,21.0,80,0.00,,---,0.00,VWS V13.01,2013-01-08 02:24:00,
2013-01-07 20:30:00,28.7,23.3,29.76,WNW,290,5.0,21.0,80,0.00,,---,0.00,VWS V13.01,2013-01-08 02:30:00,
2013-01-07 20:35:00,28.7,23.3,29.77,WSW,256,8.0,17.0,80,0.00,,---,0.00,VWS V13.01,2013-01-08 02:35:00,
2013-01-07 20:40:00,28.7,23.3,29.77,WNW,284,7.0,19.0,80,0.00,,---,0.00,VWS V13.01,2013-01-08 02:40:00,
2013-01-07 20:45:00,28.7,23.0,29.78,WSW,251,4.0,20.0,79,0.00,,---,0.00,VWS V13.01,2013-01-08 02:45:00,
2013-01-07 20:51:00,28.7,23.0,29.78,NW,311,18.0,18.0,79,0.00,,---,0.00,VWS V13.01,2013-01-08 02:51:00,
2013-01-07 20:56:00,28.7,23.0,29.78,WNW,301,4.0,22.0,79,0.00,,---,0.00,VWS V13.01,2013-01-08 02:56:00,
2013-01-07 21:01:00,28.6,22.9,29.78,West,278,6.0,22.0,79,0.00,,---,0.00,VWS V13.01,2013-01-08 03:01:00,
2013-01-07 21:06:00,28.6,23.2,29.78,WSW,257,13.0,17.0,80,0.00,,---,0.00,VWS V13.01,2013-01-08 03:06:00,
2013-01-07 21:11:00,28.6,22.9,29.78,West,269,10.0,22.0,79,0.00,,---,0.00,VWS V13.01,2013-01-08 03:11:00,
2013-01-07 21:17:00,28.6,22.9,29.74,WNW,284,6.0,13.0,79,0.00,,---,0.00,VWS V13.01,2013-01-08 03:17:00,
2013-01-07 21:22:00,28.6,22.9,29.74,WNW,284,13.0,21.0,79,0.00,,---,0.00,VWS V13.01,2013-01-08 03:22:00,
2013-01-07 21:27:00,28.5,22.8,29.74,West,276,16.0,21.0,79,0.00,,---,0.00,VWS V13.01,2013-01-08 03:27:00,
2013-01-07 21:32:00,28.5,22.8,29.75,WSW,245,6.0,16.0,79,0.00,,---,0.00,VWS V13.01,2013-01-08 03:32:00,
2013-01-07 21:38:00,28.5,23.1,29.75,West,276,4.0,18.0,80,0.00,,---,0.00,VWS V13.01,2013-01-08 03:38:00,
2013-01-07 21:43:00,28.4,23.0,29.75,WSW,247,5.0,18.0,80,0.00,,---,0.00,VWS V13.01,2013-01-08 03:43:00,
2013-01-07 21:48:00,28.4,23.0,29.76,WNW,283,11.0,17.0,80,0.00,,---,0.00,VWS V13.01,2013-01-08 03:48:00,
2013-01-07 21:53:00,28.3,22.9,29.76,WSW,244,9.0,17.0,80,0.00,,---,0.00,VWS V13.01,2013-01-08 03:53:00,
2013-01-07 21:59:00,28.3,22.9,29.76,WNW,292,5.0,17.0,80,0.00,,---,0.00,VWS V13.01,2013-01-08 03:59:00,
2013-01-07 22:04:00,28.3,22.9,29.77,West,271,3.0,15.0,80,0.00,,---,0.00,VWS V13.01,2013-01-08 04:04:00,
2013-01-07 22:09:00,28.3,23.2,29.77,SSW,207,9.0,15.0,81,0.00,,---,0.00,VWS V13.01,2013-01-08 04:09:00,
2013-01-07 22:14:00,28.2,22.8,29.77,WNW,294,3.0,18.0,80,0.00,,---,0.00,VWS V13.01,2013-01-08 04:14:00,
2013-01-07 22:19:00,28.2,23.1,29.78,West,278,6.0,16.0,81,0.00,,---,0.00,VWS V13.01,2013-01-08 04:19:00,
2013-01-07 22:25:00,28.2,23.1,29.78,West,264,6.0,16.0,81,0.00,,---,0.00,VWS V13.01,2013-01-08 04:25:00,
2013-01-07 22:30:00,28.1,23.0,29.78,WSW,251,4.0,16.0,81,0.00,,---,0.00,VWS V13.01,2013-01-08 04:30:00,
2013-01-07 22:35:00,28.1,23.0,29.78,WNW,288,4.0,14.0,81,0.00,,---,0.00,VWS V13.01,2013-01-08 04:35:00,
2013-01-07 22:41:00,28.1,23.0,29.78,West,274,6.0,17.0,81,0.00,,---,0.00,VWS V13.01,2013-01-08 04:41:00,
2013-01-07 22:46:00,28.0,22.9,29.80,West,261,3.0,17.0,81,0.00,,---,0.00,VWS V13.01,2013-01-08 04:46:00,
2013-01-07 22:51:00,28.1,23.0,29.80,WNW,290,5.0,13.0,81,0.00,,---,0.00,VWS V13.01,2013-01-08 04:51:00,
2013-01-07 22:56:00,28.0,23.2,29.80,NW,311,9.0,13.0,82,0.00,,---,0.00,VWS V13.01,2013-01-08 04:56:00,
2013-01-07 23:00:00,27.9,22.8,29.80,West,268,4.0,13.0,81,0.00,,---,0.00,VWS V13.01,2013-01-08 05:00:00,
2013-01-07 23:03:00,27.9,22.8,29.80,West,273,9.0,11.0,81,0.00,,---,0.00,VWS V13.01,2013-01-08 05:03:00,
2013-01-07 23:05:00,27.9,22.8,29.80,West,270,12.0,12.0,81,0.00,,---,0.00,VWS V13.01,2013-01-08 05:05:00,
2013-01-07 23:10:00,27.9,22.8,29.80,West,269,1.0,15.0,81,0.00,,---,0.00,VWS V13.01,2013-01-08 05:10:00,
2013-01-07 23:15:00,27.9,23.1,29.77,West,262,5.0,15.0,82,0.00,,---,0.00,VWS V13.01,2013-01-08 05:15:00,
2013-01-07 23:21:00,27.9,23.1,29.77,WNW,294,2.0,10.0,82,0.00,,---,0.00,VWS V13.01,2013-01-08 05:21:00,
2013-01-07 23:26:00,27.8,22.7,29.77,West,259,10.0,16.0,81,0.00,,---,0.00,VWS V13.01,2013-01-08 05:26:00,
2013-01-07 23:31:00,27.8,22.7,29.79,West,264,5.0,16.0,81,0.00,,---,0.00,VWS V13.01,2013-01-08 05:31:00,
2013-01-07 23:36:00,27.8,22.7,29.79,West,268,7.0,14.0,81,0.00,,---,0.00,VWS V13.01,2013-01-08 05:36:00,
2013-01-07 23:41:00,27.7,22.6,29.79,West,267,6.0,14.0,81,0.00,,---,0.00,VWS V13.01,2013-01-08 05:41:00,
2013-01-07 23:46:00,27.7,22.6,29.79,West,265,4.0,7.0,81,0.00,,---,0.00,VWS V13.01,2013-01-08 05:46:00,
2013-01-07 23:52:00,27.6,22.5,29.79,West,264,6.0,12.0,81,0.00,,---,0.00,VWS V13.01,2013-01-08 05:52:00,
2013-01-07 23:57:00,27.6,22.5,29.79,West,281,3.0,13.0,81,0.00,,---,0.00,VWS V13.01,2013-01-08 05:57:00,